GEC8401 OPLA-OMSJ

Flight info

Callsign GEC8401
Flight time N/A
Altitude 34000
Route VEREN J166 NITIV G214 PG T385 TAPDO A454 VUSET N571 MENSA/N0406F160 N317 NOLSU
Aircraft MD11/H-SDE1E2E3FGHIJ2J3J4J5M1RWXY/LB1D1

Departure

Time 2026-04-26 20:32
Airport Allama Iqbal International Airport (OPLA)

Arrival

Time N/A
Airport Sharjah International Airport (OMSJ)
Time Latitude Longitude Altitude Speed Heading
2026-04-26 20:07 31.51763 74.40947 725 ft 0 kts 91°
2026-04-26 20:22 31.51763 74.40931 723 ft 4 kts 88°
2026-04-26 20:22 31.51761 74.40899 723 ft 4 kts 86°
2026-04-26 20:22 31.51761 74.40870 725 ft 4 kts 109°
2026-04-26 20:23 31.51770 74.40849 723 ft 4 kts 139°
2026-04-26 20:23 31.51789 74.40838 726 ft 4 kts 177°
2026-04-26 20:23 31.51810 74.40837 724 ft 0 kts 180°
2026-04-26 20:26 31.51800 74.40837 724 ft 4 kts 180°
2026-04-26 20:26 31.51745 74.40824 724 ft 11 kts 209°
2026-04-26 20:26 31.51710 74.40733 727 ft 13 kts 261°
2026-04-26 20:26 31.51651 74.40665 723 ft 13 kts 201°
2026-04-26 20:27 31.51559 74.40657 723 ft 13 kts 181°
2026-04-26 20:27 31.51465 74.40655 725 ft 15 kts 180°
2026-04-26 20:27 31.51352 74.40655 724 ft 18 kts 180°
2026-04-26 20:27 31.51219 74.40653 726 ft 19 kts 181°
2026-04-26 20:28 31.51084 74.40650 723 ft 19 kts 181°
2026-04-26 20:28 31.50959 74.40648 721 ft 17 kts 181°
2026-04-26 20:28 31.50843 74.40644 721 ft 15 kts 185°
2026-04-26 20:28 31.50757 74.40612 724 ft 11 kts 211°
2026-04-26 20:29 31.50720 74.40574 725 ft 0 kts 225°
2026-04-26 20:30 31.50709 74.40561 722 ft 5 kts 225°
2026-04-26 20:30 31.50677 74.40507 722 ft 11 kts 249°
2026-04-26 20:31 31.50684 74.40454 721 ft 2 kts 307°
2026-04-26 20:31 31.50705 74.40441 722 ft 8 kts 338°
2026-04-26 20:31 31.50765 74.40435 722 ft 0 kts
2026-04-26 20:31 31.50766 74.40435 724 ft 1 kts
2026-04-26 20:32 31.51016 74.40439 722 ft 81 kts
2026-04-26 20:32 31.51872 74.40452 725 ft 165 kts
2026-04-26 20:32 31.53176 74.40471 1091 ft 199 kts
2026-04-26 20:32 31.54616 74.40495 1888 ft 213 kts 359°
2026-04-26 20:33 31.56125 74.40492 2819 ft 217 kts 358°
2026-04-26 20:33 31.57582 74.40294 3579 ft 220 kts 342°
2026-04-26 20:33 31.58991 74.39440 4136 ft 243 kts 322°
2026-04-26 20:33 31.60051 74.37815 4821 ft 258 kts 295°